Weather observations for the past three days for
Mc Campbell
Imperial (Metric)
Date Time (cdt) Wind (mph) Vis. (mi.) Weather Sky Cond. Temperature (ºF) Relative Humidity Wind Chill (°F) Heat Index (°F) Pressure Precipitation (in)
Air Dwpt 6 hour altimeter (in) sea level (mb) 1 hr 3 hr 6 hr
Max. Min.
17 14:15 S 8 7.00 Fair CLR 95.2 78.6 59% 113 29.99 0.0
17 13:55 S 10 7.00 Fair CLR 93.9 80.6 65% 114 29.99 0.0
17 13:35 S 9 10.00 Fair CLR 91.8 77.2 62% 106 29.99 0.0
17 13:15 S 7 10.00 Fair CLR 91.6 77.9 64% 107 29.99 0.0
17 12:55 S 10 10.00 Fair CLR 91.9 78.1 93.4 79.3 64% 107 29.99 0.0
17 12:35 S 9 3.00 Fair CLR 93.2 77.9 61% 109 29.99 0.0
17 12:15 S 9 4.00 Fair CLR 93.2 77.4 60% 108 29.99 0.0
17 11:55 S 10 5.00 Fair CLR 93.2 78.6 63% 110 29.99 0.0
17 11:35 S 8 10.00 Fair CLR 90.9 77.5 65% 105 29.99 0.0
17 11:15 S 7 7.00 Fair CLR 91.2 78.4 66% 107 29.99 0.0
17 10:55 SW 7 3.00 Fair CLR 90.3 81.9 76% 112 29.99 0.0
17 10:35 SW 5 2.00 Fair CLR 88.9 83.1 83% 112 29.99 0.0
17 10:15 S 3 1.50 Sky Obscured VV007 87.8 82.6 85% 109 30 0.0
17 09:55 S 3 2.00 Fair CLR 86.9 81.9 85% 106 29.99 0.0
17 09:35 Calm 2.00 Fair CLR 86 80.6 84% 102 29.99 0.0
17 09:15 Calm 2.00 Fair CLR 85.6 80.4 84% 101 29.99 0.0
17 08:55 Calm 1.50 Sky Obscured VV007 85.3 80.8 86% 101 29.98 0.0
17 08:35 Calm 1.25 Sky Obscured VV007 83.1 79 87% 94 29.98 0.0
17 08:15 Calm 1.50 Sky Obscured VV007 81 76.8 87% 88 29.98 0.0
17 07:55 Calm 2.50 Fair CLR 80.2 76.8 89% 86 29.98 0.0
17 07:35 Calm 1.75 Sky Obscured VV007 80.2 77 90% 86 29.99 0.0
17 07:15 E 5 1.50 Mostly Cloudy SCT006 BKN010 79.5 75.2 87% 84 29.98 0.0
17 06:55 W 3 0.50 Thunderstorm OVC008 79.3 74.3 84.2 79.3 85% 83 29.97 0.0
17 06:35 W 10 1.00 Thunderstorm SCT006 SCT015 BKN021 82 76.6 84% 90 29.98 0.0
17 06:15 Calm 7.00 Thunderstorm CLR 82.8 77 83% 92 29.96 0.0
17 05:55 Calm 7.00 Fair CLR 82 75.2 80% 89 29.96 0.0
17 05:35 Calm 7.00 Fair CLR 82 74.8 79% 89 29.95 0.0
17 05:15 Calm 7.00 Fair CLR 82.6 75.2 78% 90 29.94 0.0
17 04:55 S 3 7.00 Fair CLR 83.3 76.1 79% 92 29.94 0.0
17 04:35 SW 5 10.00 Fair CLR 83.5 76.5 79% 92 29.93 0.0
17 04:15 S 6 10.00 Fair CLR 83.5 76.5 79% 92 29.93 0.0
17 03:55 S 6 10.00 Fair CLR 83.7 76.6 79% 93 29.93 0.0
17 03:35 SW 7 7.00 Fair CLR 83.7 76.6 79% 93 29.94 0.0
17 03:15 S 9 10.00 Partly Cloudy SCT023 83.5 76.5 79% 92 29.94 0.0
17 02:55 S 6 10.00 Partly Cloudy SCT022 83.5 76.1 79% 92 29.94 0.0
17 02:35 S 6 10.00 Partly Cloudy SCT020 83.5 76.1 79% 92 29.94 0.0
17 02:15 SW 6 10.00 Fair CLR 83.8 76.3 78% 93 29.95 0.0
17 01:55 S 10 10.00 Fair CLR 83.8 76.6 79% 93 29.95 0.0
17 01:35 S 10 10.00 Fair CLR 84.2 77 79% 94 29.95 0.0
17 01:15 S 9 10.00 Partly Cloudy SCT020 SCT036 84.2 77.2 80% 94 29.96 0.0
17 00:55 S 9 10.00 Partly Cloudy SCT019 SCT028 SCT034 84 77 88.7 83.7 80% 94 29.96 0.0 0.01 0.01
17 00:35 S 7 10.00 Fair CLR 83.8 76.6 79% 93 29.95 0.0 0.01
17 00:15 S 7 10.00 Fair CLR 83.8 76.5 79% 93 29.95 0.0
16 23:55 S 7 10.00 Fair CLR 84.2 76.5 78% 94 29.95 0.0
16 23:35 S 9 10.00 Fair CLR 84.4 76.6 78% 94 29.95 0.0
16 23:15 S 12 10.00 Partly Cloudy SCT023 84.7 77 78% 95 29.95 0.0
16 22:55 S 7 10.00 Fair CLR 84.6 76.3 76% 94 29.95 0.0
16 22:35 S 8 10.00 Fair CLR 84.6 76.3 76% 94 29.94 0.0
16 22:15 S 9 10.00 Fair CLR 84.6 76.5 77% 94 29.94 0.0
16 21:55 S 7 10.00 Fair CLR 84.6 76.1 76% 94 29.94 0.0
16 21:35 S 9 10.00 Fair CLR 84.7 76.5 76% 95 29.93 0.0
16 21:15 S 9 10.00 Fair CLR 84.7 76.1 75% 94 29.93 0.0
16 20:55 S 8 10.00 Fair CLR 85.3 76.3 75% 95 29.92 0.0
16 20:35 S 8 10.00 Fair CLR 85.6 76.1 73% 96 29.92 0.0
16 20:15 S 10 10.00 Fair CLR 86 75.9 72% 96 29.91 0.0
16 19:55 S 12 10.00 Fair CLR 86.9 76.1 70% 97 29.91 0.0
16 19:35 S 13 10.00 Fair CLR 87.4 76.1 69% 98 29.91 0.0
16 19:15 S 12 10.00 Fair CLR 88.2 77 70% 100 29.91 0.0
16 18:55 S 10 10.00 Fair CLR 88.3 75.9 95.5 88.3 67% 99 29.91 0.0
16 18:35 S 12 10.00 Fair CLR 89.1 76.5 66% 101 29.91 0.0
16 18:15 S 13 10.00 Fair CLR 89.6 76.5 65% 102 29.91 0.0
16 17:55 S 13 10.00 Fair CLR 92.5 76.8 60% 106 29.91 0.0
16 17:35 S 13 10.00 Fair CLR 94.5 77.4 58% 110 29.92 0.0
16 17:15 S 14 10.00 Fair CLR 94.1 77.2 58% 109 29.92 0.0
16 16:55 SE 14 10.00 Fair CLR 94.5 77.9 59% 111 29.92 0.0
16 16:35 S 12 G 18 10.00 Fair CLR 94.5 77.4 58% 110 29.93 0.0
16 16:15 S 10 G 17 10.00 Fair CLR 95 77.9 58% 111 29.93 0.0
16 15:55 SE 12 G 17 10.00 Fair CLR 94.8 77.7 58% 111 29.93 0.0
16 15:35 S 12 10.00 Fair CLR 94.3 78.1 59% 111 29.94 0.0
16 15:15 S 10 10.00 Fair CLR 94.1 77.2 58% 109 29.94 0.0
16 14:55 S 10 G 16 10.00 Fair CLR 94.5 76.6 56% 109 29.95 0.0
16 14:35 S 10 10.00 Fair CLR 94.5 78.3 60% 111 29.96 0.0
16 14:15 S 10 10.00 Fair CLR 95.2 78.1 58% 112 29.96 0.0
16 13:55 S 10 10.00 Fair CLR 90.5 76.3 63% 103 29.96 0.0
16 13:35 S 10 10.00 Partly Cloudy SCT027 SCT034 91 76.6 63% 104 29.97 0.0
16 13:15 S 12 10.00 Partly Cloudy SCT024 SCT034 92.5 77 61% 106 29.97 0.0
16 12:55 S 8 10.00 Partly Cloudy SCT022 SCT034 92.8 78.3 92.8 81.5 63% 109 29.98 0.0 0.01
16 12:35 S 8 10.00 Partly Cloudy SCT020 91.9 79.2 66% 109 29.98 0.0
16 12:15 S 6 10.00 Mostly Cloudy BKN020 BKN035 90.7 78.4 67% 106 29.98 0.0
16 11:55 S 7 0.75 Overcast OVC022 90.5 78.3 67% 106 29.98 0.0
16 11:35 SW 6 1.50 Overcast OVC022 90.5 77.9 67% 105 29.98 0.0
16 11:15 S 7 1.25 Mostly Cloudy BKN022 BKN033 90.7 77.9 66% 105 29.98 0.0
16 10:55 SW 5 0.50 Mostly Cloudy BKN021 91.8 78.4 65% 108 29.98 0.0
16 10:35 SW 6 1.50 Partly Cloudy SCT021 91.4 78.6 66% 107 29.98 0.0
16 10:15 SW 7 1.00 Sky Obscured VV007 91.4 78.3 66% 107 29.99 0.0
16 09:55 SW 6 0.75 Mostly Cloudy BKN020 91.8 79 66% 109 29.99 0.0 0.01 0.01
16 09:35 SW 7 0.50 Sky Obscured VV005 90.9 81.5 74% 112 29.99 0.0 0.01
16 09:15 SW 8 1.25 Sky Obscured VV007 88.2 79.7 76% 104 29.99 0.0
16 08:55 SW 6 1.00 Partly Cloudy SCT018 87.8 79.9 77% 104 29.99 0.0
16 08:35 SW 5 1.25 Partly Cloudy SCT020 88.2 81.9 82% 108 29.99 0.0
16 08:15 Calm 4.00 Partly Cloudy SCT020 SCT030 86.2 80.4 83% 102 29.98 0.0
16 07:55 Calm 5.00 Partly Cloudy SCT022 SCT030 84.2 78.3 82% 95 29.98 0.0
16 07:35 SW 5 1.75 Mostly Cloudy SCT020 BKN027 BKN037 83.3 77.4 82% 93 29.97 0.0
16 07:15 SW 3 2.50 Mostly Cloudy SCT020 BKN027 81.9 75.4 81% 89 29.97 0.0
16 06:55 SW 5 1.25 Sky Obscured VV007 81.5 74.3 84.4 81.5 79% 87 29.97 0.0
16 06:35 Calm 5.00 Fair CLR 81.7 74.3 78% 88 29.96 0.0
16 06:15 SW 5 5.00 Partly Cloudy SCT023 SCT032 82.6 75.2 78% 90 29.96 0.0
16 05:55 SW 5 4.00 Mostly Cloudy BKN021 BKN029 83.5 76.5 79% 92 29.96 0.0
16 05:35 S 3 10.00 Mostly Cloudy BKN021 BKN029 BKN044 83.3 76.1 79% 92 29.96 0.0
16 05:15 S 5 10.00 Partly Cloudy SCT025 SCT032 SCT044 83.3 76.1 79% 92 29.95 0.0
16 04:55 S 5 10.00 Fair CLR 83.5 76.1 79% 92 29.95 0.0
16 04:35 S 6 10.00 Fair CLR 83.8 76.6 79% 93 29.95 0.0
16 04:15 SW 7 10.00 Partly Cloudy SCT021 SCT027 SCT033 84 76.6 79% 93 29.95 0.0
16 03:55 S 7 10.00 Partly Cloudy SCT021 SCT027 84.2 77 79% 94 29.95 0.0
16 03:35 S 5 10.00 Partly Cloudy SCT021 SCT029 84.4 77 79% 94 29.95 0.0
16 03:15 S 7 10.00 Mostly Cloudy BKN023 BKN031 84.2 76.8 79% 94 29.95 0.0
16 02:35 S 7 10.00 Partly Cloudy SCT023 84.2 76.3 77% 93 29.95 0.0
16 02:15 S 9 10.00 Partly Cloudy SCT023 84 76.5 78% 93 29.96 0.0
16 01:55 S 10 10.00 Partly Cloudy SCT023 83.8 76.8 79% 93 29.97 0.0
16 01:35 S 8 10.00 Partly Cloudy SCT021 83.7 76.5 79% 93 29.97 0.0
16 01:15 S 12 10.00 Fair CLR 83.5 76.3 79% 92 29.97 0.0
16 00:55 S 9 10.00 Fair CLR 83.3 75.6 88.7 82.2 78% 91 29.97 0.0 0.01
16 00:35 S 8 10.00 Fair CLR 82.9 75.2 78% 90 29.97 0.0
16 00:15 S 9 10.00 Fair CLR 82.8 74.8 77% 90 29.97 0.0
15 23:55 S 7 10.00 Fair CLR 82.6 74.5 77% 89 29.96 0.0
15 23:35 S 8 10.00 Fair CLR 82.8 74.7 77% 90 29.96 0.0
15 23:15 S 7 10.00 Fair CLR 82.6 74.5 77% 89 29.96 0.0
15 22:55 S 7 10.00 Fair CLR 82.8 75.4 78% 90 29.95 0.0
15 22:35 S 8 10.00 Fair CLR 82.6 75.6 79% 90 29.95 0.0
15 22:15 S 9 10.00 Fair CLR 82.4 75.2 79% 89 29.95 0.0
15 21:55 S 7 10.00 Fair CLR 82.4 75.2 79% 89 29.95 0.0 0.01
15 21:35 S 7 10.00 Fair CLR 82.8 75.4 78% 90 29.95 0.0
15 21:15 S 7 10.00 Fair CLR 83.3 75.6 78% 91 29.95 0.0
15 20:55 S 8 10.00 Fair CLR 83.3 75.2 77% 91 29.95 0.0
15 20:35 S 7 10.00 Fair CLR 83.8 74.7 74% 91 29.95 0.0
15 20:15 S 7 10.00 Fair CLR 84.6 74.3 71% 92 29.96 0.0
15 19:55 S 8 10.00 Fair CLR 86 74.5 69% 94 29.96 0.0 0.01
15 19:35 S 8 10.00 Fair CLR 87.6 74.3 65% 97 29.96 0.0
15 19:15 S 10 10.00 Fair CLR 88.2 74.3 64% 97 29.96 0.0
15 18:55 S 12 10.00 Fair CLR 88.9 74.3 94.3 88.9 62% 98 29.95 0.0
15 18:35 S 12 10.00 Fair CLR 90 75.7 63% 101 29.95 0.0
15 18:15 S 10 10.00 Fair CLR 91.8 75.6 59% 104 29.96 0.0
15 17:55 S 9 10.00 Fair CLR 92.3 75.9 59% 105 29.96 0.0
15 17:35 S 13 G 17 10.00 Fair CLR 92.3 75.6 58% 104 29.97 0.0
15 17:15 S 13 G 17 10.00 Fair CLR 93.2 76.6 59% 107 29.97 0.0
15 16:55 S 14 10.00 Fair CLR 93 75.6 57% 105 29.97 0.0
15 16:35 S 14 G 17 10.00 Fair CLR 93.2 75.6 57% 105 29.97 0.0
15 16:15 S 13 10.00 Fair CLR 93.4 75.4 56% 105 29.98 0.0
15 15:55 S 13 10.00 Fair CLR 91.9 76.6 61% 105 29.99 0.0
15 15:35 S 14 10.00 Partly Cloudy SCT024 92.3 76.5 60% 105 30 0.0
15 15:15 S 13 G 18 10.00 Partly Cloudy SCT024 94.1 78.1 60% 110 30 0.0
15 14:55 S 14 1.00 Sky Obscured VV007 94.3 77 57% 109 30.01 0.0
15 14:35 S 10 1.75 Sky Obscured VV007 91.2 77.4 64% 105 30.02 0.0
15 14:15 S 9 1.75 Sky Obscured VV007 90.9 77.4 65% 105 30.03 0.0
15 13:55 S 9 2.00 Fair CLR 89.6 76.1 65% 101 30.03 0.0
15 13:35 S 8 1.50 Sky Obscured VV007 90.5 75.9 62% 102 30.03 0.0
15 13:15 S 12 0.50 Sky Obscured VV005 91.6 76.1 61% 104 30.04 0.0
15 12:55 S 10 0.75 Sky Obscured VV005 91.4 75.4 92.3 81.5 60% 103 30.05 0.0 0.01
15 12:35 S 9 1.50 Sky Obscured VV007 91.4 75.7 60% 103 30.05 0.0
15 12:15 S 8 3.00 Fair CLR 91.4 76.1 61% 104 30.05 0.0
15 11:55 SW 9 2.00 Fair CLR 90.9 75.4 61% 102 30.05 0.0
15 11:35 SW 10 2.50 Fair CLR 91 74.5 58% 101 30.06 0.0
15 11:15 SW 12 3.00 Fair CLR 92.3 75.6 58% 104 30.06 0.0
15 10:55 SW 9 3.00 Fair CLR 91 77.2 64% 105 30.07 0.0
15 10:35 SW 9 3.00 Fair CLR 89.2 76.3 66% 101 30.08 0.0
15 10:15 SW 12 G 16 1.75 Sky Obscured VV007 89.6 77.4 67% 103 30.07 0.0
15 09:55 SW 13 G 17 1.50 Sky Obscured VV007 88 77 70% 100 30.07 0.0 0.01
15 09:35 SW 10 1.25 Sky Obscured VV007 86.5 77.2 74% 98 30.07 0.0
15 09:15 SW 12 2.50 Fair CLR 86 77.9 77% 98 30.07 0.0
15 08:55 SW 8 4.00 Fair CLR 85.1 78.8 81% 98 30.08 0.0 0.01
15 08:35 SW 6 4.00 Fair CLR 84.6 79.2 84% 97 30.07 0.0 0.01
15 08:15 SW 8 4.00 Fair CLR 83.8 78.8 85% 95 30.06 0.0 0.01
15 07:55 SW 5 5.00 Fair CLR 82.8 77.4 84% 92 30.06 0.0
15 07:35 SW 5 4.00 Fair CLR 82.2 76.8 84% 90 30.05 0.0
15 07:15 SW 5 5.00 Fair CLR 81.7 76.1 83% 89 30.05 0.0
15 06:55 SW 5 5.00 Fair CLR 81.5 75.9 83.3 80.8 83% 88 30.05 0.0
15 06:35 W 5 7.00 Fair CLR 81 75.2 83% 87 30.05 0.0
15 06:15 SW 5 7.00 Fair CLR 80.8 74.8 82% 86 30.04 0.0
15 05:55 W 5 7.00 Fair CLR 81 75.2 83% 87 30.04 0.0
15 05:35 SW 5 7.00 Fair CLR 81.5 74.7 80% 88 30.04 0.0
15 05:15 SW 3 7.00 Partly Cloudy SCT019 SCT030 82.2 75.4 80% 89 30.04 0.0
15 04:55 SW 6 5.00 Fair CLR 82.6 76.3 81% 91 30.04 0.0
15 04:35 S 7 5.00 Fair CLR 82.6 76.3 81% 91 30.03 0.0
15 04:15 S 6 7.00 Fair CLR 82.4 76.1 81% 90 30.03 0.0
15 03:55 SW 5 7.00 Fair CLR 82.2 75.6 80% 89 30.03 0.0
15 03:35 SW 6 7.00 Partly Cloudy SCT022 81.9 74.5 78% 88 30.03 0.0
15 03:15 S 6 7.00 Fair CLR 82.6 75.6 79% 90 30.03 0.0
15 02:55 SW 5 5.00 Fair CLR 82.8 75.9 80% 91 30.03 0.0
15 02:35 SW 7 5.00 Fair CLR 82.8 75.7 79% 91 30.03 0.0
15 02:15 S 7 5.00 Partly Cloudy SCT020 SCT028 82.9 76.1 80% 91 30.04 0.0
15 01:55 SW 7 5.00 Partly Cloudy SCT022 SCT028 83.3 76.1 79% 92 30.04 0.0
15 01:35 SW 7 5.00 Fair CLR 82.8 75.7 79% 91 30.05 0.0
15 01:15 SW 7 5.00 Fair CLR 82.9 75.6 78% 91 30.05 0.0
15 00:55 S 6 5.00 Fair CLR 83.3 75.9 88.7 83.3 79% 92 30.05 0.0
15 00:35 S 9 5.00 Fair CLR 83.7 76.3 79% 93 30.06 0.0
15 00:15 S 8 5.00 Fair CLR 83.8 76.6 79% 93 30.06 0.0
14 23:55 S 8 7.00 Partly Cloudy SCT020 84 77 80% 94 30.06 0.0
14 23:35 SW 8 10.00 Partly Cloudy SCT020 SCT029 84.2 77.5 80% 95 30.06 0.0
14 23:15 S 9 10.00 Fair CLR 83.8 77.2 80% 94 30.06 0.0
14 22:55 S 8 10.00 Partly Cloudy SCT020 SCT028 84.2 77.2 80% 94 30.05 0.0
14 22:35 S 7 5.00 Partly Cloudy SCT020 SCT028 84.6 77.9 81% 96 30.05 0.0
14 22:15 S 7 5.00 Mostly Cloudy BKN020 BKN029 84.7 77.9 80% 96 30.05 0.0
14 21:55 S 9 1.50 Mostly Cloudy BKN020 BKN029 84.7 77.9 80% 96 30.04 0.0
14 21:35 S 8 3.00 Partly Cloudy SCT022 84.2 76.8 79% 94 30.05 0.0
14 21:15 S 7 1.75 Sky Obscured VV007 84.6 76.6 77% 94 30.05 0.0
14 20:55 S 8 1.00 Mostly Cloudy BKN022 BKN027 85.1 76.5 75% 95 30.05 0.0
14 20:35 S 10 0.25 Sky Obscured VV002 85.3 76.5 75% 95 30.05 0.0
14 20:15 S 9 0.25 Sky Obscured VV002 86 75.9 72% 96 30.05 0.0
14 19:55 S 7 0.25 Sky Obscured VV002 87.1 75.9 70% 98 30.05 0.0
14 19:35 S 8 0.25 Sky Obscured VV002 87.8 76.6 70% 99 30.05 0.0
14 19:15 S 12 0.15 Sky Obscured VV000 88.5 77.2 69% 101 30.05 0.0
14 18:55 S 12 0.15 Sky Obscured VV000 88.3 77 96.3 88 69% 101 30.06 0.0
14 18:35 S 13 0.15 Sky Obscured VV000 89.6 76.1 65% 101 30.06 0.0
14 18:15 S 13 0.15 Sky Obscured VV000 88.5 76.3 67% 100 30.07 0.0
14 17:55 S 12 G 16 0.15 Sky Obscured VV000 88.3 77.2 70% 101 30.07 0.0
14 17:35 S 10 0.15 Sky Obscured VV000 88.2 77.5 71% 101 30.07 0.0
14 17:15 S 12 0.15 Sky Obscured VV000 88.2 76.1 68% 99 30.07 0.0
14 16:55 S 10 0.15 Sky Obscured VV000 88.9 76.5 67% 101 30.08 0.0
14 16:35 S 12 0.15 Sky Obscured VV000 89.4 77.5 68% 103 30.08 0.0
14 16:15 S 10 0.25 Mostly Cloudy BKN023 BKN035 89.1 77.5 69% 102 30.08 0.0
14 15:55 S 13 0.15 Mostly Cloudy BKN025 BKN033 91.4 76.3 61% 104 30.08 0.0
14 15:35 S 10 G 16 0.25 Sky Obscured VV002 95.5 77.7 57% 112 30.09 0.0
14 15:15 S 10 0.15 Sky Obscured VV000 95.9 77.4 55% 112 30.09 0.0
14 14:55 S 12 0.25 Sky Obscured VV002 95.9 76.6 54% 110 30.1 0.0
Date Time (cdt) Wind (mph) Vis. (mi.) Weather Sky Cond. Air Dwpt Max. Min. Relative Humidity Wind Chill (°F) Heat Index (°F) altimeter (in) sea level (mb) 1 hr 3 hr 6 hr
6 hour
Temperature (ºF) Pressure Precipitation (in)